Regional Weather Roundup
Issued by NWS Binghamton, NY

Current Version | Previous Version | Text Only | Print | Product List | Glossary On
Versions: 1 2 3 4 5 6 7 8 9 10 11 12 13 14 15 16 17 18 19 20 21 22 23 24 25 26 27 28 29 30 31 32 33 34 35 36 37 38 39 40 41 42 43 44 45 46 47 48 49 50
000
ASUS41 KBGM 241110
RWRBGM
RWRBGM
BINGHAMTON REGIONAL WEATHER ROUNDUP
NATIONAL WEATHER SERVICE BINGHAMTON NY
700 AM EDT THU JUL 24 2014

Note: "fair" indicates few or no clouds below 12,000 feet with no
significant weather and/or obstructions to visibility.

* = Station(s) that does not report precipitation, such as rain,
snow, etc, also no thunder or fog.

!NYZ009-015>018-022>025-036-037-044>046-055>057-062-241200
...CENTRAL NEW YORK...

CITY           SKY/WX    TMP DP  RH WIND       PRES   REMARKS
BINGHAMTON     MOSUNNY   59  57  93 NW7       29.97R
CORTLAND       CLOUDY    59  54  82 NE3       30.00R
DANSVILLE        N/A    N/A N/A N/A MISG      30.03R
ELMIRA         PTSUNNY   62  57  83 CALM      29.98R
ITHACA         CLOUDY    60  55  83 NW6       30.01R
HAMILTON       CLOUDY    59  54  82 N3        29.98R
MONTICELLO     PTSUNNY   61  57  88 NW7       29.93R
PENN YAN       CLOUDY    61  54  77 VRB5      30.01R
ROME           PTSUNNY   59  51  75 VRB3      29.97R
SIDNEY         SUNNY     61  61 100 CALM      29.96R
SYRACUSE       CLOUDY    60  50  69 NW6       29.98R
$$

!PAZ038>040-043-044-047-048-072-241200
...NORTHEAST PENNSYLVANIA...

CITY           SKY/WX    TMP DP  RH WIND       PRES   REMARKS
HAZLETON       CLOUDY    63  57  82 N6        29.97S
SCRANTON       CLOUDY    65  58  78 N7        29.93S
TOWANDA*       MOSUNNY   63  61  94 CALM      29.97S
$$
&&
KEY
WCI = WIND CHILL INDEX
VSB = VISIBILITY
HX  = HEAT INDEX
$$


USA.gov is the U.S. government's official web portal to all federal, state and local government web resources and services.